Other Public Products
Issued by NWS Charleston, SC

Current Version | Previous Version | Text Only | Print | Product List | Glossary Off
Versions: 1 2 3 4 5 6 7 8 9 10 11 12 13 14 15 16 17 18 19 20 21 22 23 24 25 26 27 28 29 30 31 32 33 34 35 36 37 38 39 40 41 42 43 44 45 46 47 48 49 50
000 FPUS82 KCHS 190440 OPUCHS TEST...KCHS/KSAV Gateway Observations...TEST National Weather Service Charleston SC 1200 AM EDT TUE SEP 19 2017 NOTE: "fair" indicates few or no clouds below 12,000 feet with no significant weather and/or obstructions to visibility. SCZ050-WAZ558-NCZ071-TXZ119-213-PAZ071-DCZ001-FLZ074-172-MI076- NYZ176-178-MAZ016-IL014-TNZ027-NJZ106-GAZ044-MD014-190500- ...Gateway Observations for Charleston International... CITY SKY/WX TMP DP RH WIND PRES REMARKS Chas Airport PTCLDY 73 71 93 CALM 29.98S Seattle LGT RAIN 52 49 89 S9 29.72S Charlotte PTCLDY 69 68 96 NW3 30.03S Dallas DFW PTCLDY 84 72 67 SE10 29.91S Dallas Love PTCLDY 84 71 65 S15 29.92S Philladelphia CLOUDY 72 65 78 NE13 30.05F Wash National PTCLDY 71 68 90 NE8 30.04F Baltimore PTCLDY 69 67 93 N6 30.03F Miami PTCLDY 83 74 74 NE5 29.92S Detroit CLOUDY 66 58 75 NE6 30.05F Newark CLOUDY 71 66 84 N13 30.07S Laguardia CLOUDY 71 68 90 NE14 30.07S J F K CLOUDY 72 67 84 NE12 30.07F Boston Logan FOG 64 64 100 NE9 30.17F VSB 1/4 Ft. Lauderdale MOCLDY 80 77 90 CALM 29.91S Chicago O`Hare CLOUDY 66 59 78 NE9 30.00S Chicago Midway CLOUDY 68 60 75 E12 29.99F Houston Bush MOCLDY 74 72 93 SE7 29.94S Houston Hobby PTCLDY 77 73 87 CALM 29.94S Nashville PTCLDY 72 67 84 CALM 30.00S Atlanta PTCLDY 74 64 71 CALM 30.02F $$ GAZ044-118-TXZ119-213-NCZ071-DCZ001-MDZ014-506-PAZ021-071-NJZ106- NYZ176-178-MAZ106-OHZ011-021-055-MIZ076-KYZ091-ILZ014-INZ047- MNZ060-ONZ431-190500- ...Gateway Observations for Savannah International... CITY SKY/WX TMP DP RH WIND PRES REMARKS Savannah Arpt CLEAR 74 70 87 CALM 29.99S Atlanta PTCLDY 74 64 71 CALM 30.02F Charlotte PTCLDY 69 68 96 NW3 30.03S Dallas DFW PTCLDY 84 72 67 SE10 29.91S Houston Bush MOCLDY 74 72 93 SE7 29.94S Wash National PTCLDY 71 68 90 NE8 30.04F Wash Dulles PTCLDY 69 67 93 N7 30.05F Baltimore PTCLDY 69 67 93 N6 30.03F Philadelphia CLOUDY 72 65 78 NE13 30.05F Newark CLOUDY 71 66 84 N13 30.07S Laguardia CLOUDY 71 68 90 NE14 30.07S J F K CLOUDY 72 67 84 NE12 30.07F Boston FOG 64 64 100 NE9 30.17F VSB 1/4 Pittsburg PTCLDY 69 64 84 CALM 30.06S Akron CLEAR 65 59 81 N5 30.06S Cleveland CLOUDY 73 66 78 NE6 30.05F Cincinnati PTCLDY 72 67 84 S3 30.01F Columbus CLOUDY 69 66 90 CALM 30.02F Detroit CLOUDY 66 58 75 NE6 30.05F Chicago O`Hare CLOUDY 66 59 78 NE9 30.00S Minneapolis CLOUDY 59 57 93 SE8 29.96F Indianapolis CLOUDY 70 69 97 E5 29.98S Toronto Canada MOCLDY 68 64 88 N9 30.04S $$

USA.gov is the U.S. government's official web portal to all federal, state and local government web resources and services.